Weather Roundup
Issued by NWS Springfield, MO

Current Version | Previous Version | Text Only | Print | Product List | Glossary On
Versions: 1 2 3 4 5 6 7 8 9 10 11 12 13 14 15 16 17 18 19 20 21 22 23 24 25 26 27 28 29 30 31 32 33 34 35 36 37 38 39 40 41 42 43 44 45 46 47 48 49 50
000
NZUS99 KSGF 210207
HRRSGF

HOURLY WEATHER
NATIONAL WEATHER SERVICE SPRINGFIELD MO
900 PM CDT SUN APR 20 2014

......SGF CWA......

CITY           SKY/WX    TMP DP  RH WIND       PRES   REMARKS
SPRINGFIELD    MOCLDY    64  51  62 SW7       30.05R
JOPLIN         MOCLDY    65  52  62 S6        30.05R
WEST PLAINS    MOCLDY    69  45  41 SE5       30.08S
ROLLA          PTCLDY    66  48  52 S6        30.04R
OSAGE BEACH    CLOUDY    70  48  46 CALM      30.05S
BRANSON        MOCLDY    68  48  49 S5        30.08R

......SURROUNDING SGF CWA......

CITY           SKY/WX    TMP DP  RH WIND       PRES   REMARKS
CHANUTE        CLOUDY    65  54  67 S7        30.01S
PARSONS        CLOUDY    68  54  60 SE3       30.02S
COFFEYVILLE    CLOUDY    68  55  63 S7        30.02R
EMPORIA        CLOUDY    65  55  70 S8        29.98S
GROVE OK       PTCLDY    68  54  60 SE3       30.05S
ROGERS AR      CLOUDY    67  51  56 S5        30.08S
SILOAM SPRINGS CLOUDY    66  50  55 S6        30.08S
HARRISON AR    CLOUDY    69  49  48 S3        30.09R
NEAR YELLVILLE CLOUDY    72  46  40 S3        30.07R

......KANSAS AND MISSOURI......

CITY           SKY/WX    TMP DP  RH WIND       PRES   REMARKS
KANSAS CTY INT CLOUDY    67  54  63 S7        30.01R
DOWNTOWN KC    CLOUDY    70  53  54 S8        30.00R
COLUMBIA       CLOUDY    70  50  49 S6        30.03R
SEDALIA        CLOUDY    70  54  56 SW5       30.03S
ST JOSEPH      CLOUDY    69  55  60 SW7       29.99R
ST LOUIS       MOCLDY    75  43  31 SE13      30.05R
SPIRIT OF STL  CLOUDY    73  43  33 SE6       30.03R
KIRKSVILLE     MOCLDY    68  48  48 S6        30.01R
WICHITA        MOCLDY    67  55  65 S15       29.98R
TOPEKA         CLOUDY    70  56  61 S3        30.00R
OLATHE         CLOUDY    65  54  67 S7        30.01R

......TENNESSEE......

CITY           SKY/WX    TMP DP  RH WIND       PRES   REMARKS
MEMPHIS        PTCLDY    68  49  50 S3        30.09S
NASHVILLE      PTCLDY    67  44  43 CALM      30.12R

......ARKANSAS.......

CITY           SKY/WX    TMP DP  RH WIND       PRES   REMARKS
FAYETTEVILLE   PTCLDY    58  53  84 CALM      30.08S
FT SMITH       CLOUDY    72  57  59 S3        30.05S
LITTLE ROCK    MOCLDY    71  53  52 SE5       30.07S

......OKLAHOMA.......

CITY           SKY/WX    TMP DP  RH WIND       PRES   REMARKS
TULSA          CLOUDY    64  60  87 E7        30.01F
PONCA CITY     CLOUDY    67  53  61 S9G20     30.00R
MCALESTER      CLOUDY    63  60  90 CALM      30.06F
OKLAHOMA CITY  MOCLDY    62  56  80 S12       30.02F

......IOWA............

CITY           SKY/WX    TMP DP  RH WIND       PRES   REMARKS
DES MOINES     MOCLDY    71  52  50 S8        29.95R
QUAD CITIES    MOCLDY    72  45  37 S8        29.98S

......ILLINOIS........

CITY           SKY/WX    TMP DP  RH WIND       PRES   REMARKS
QUINCY         MOCLDY    70  46  42 SE5       30.01S
CHICAGO        MOCLDY    64  40  41 S9        30.04S




USA.gov is the U.S. government's official web portal to all federal, state and local government web resources and services.